Weather History for Easton, MD

Change the Weather History Date:

Tuesday, March 20, 2012

  Actual Average Record
Temperature  
Mean Temperature 63 °F -  
Max Temperature 71 °F 56 °F 75 °F (1976)
Min Temperature 55 °F 35 °F 18 °F (1949)
Degree Days  
Heating Degree Days 2    
Growing Degree Days 13 (Base 50)    
Moisture  
Dew Point 59 °F    
Average Humidity 96    
Maximum Humidity 100    
Minimum Humidity 73    
Precipitation  
Precipitation 0.00 in - - ()
Sea Level Pressure  
Sea Level Pressure 30.25 in    
Wind  
Wind Speed 2 mph (ENE)    
Max Wind Speed 9 mph    
Max Gust Speed -    
Visibility 5 miles    
Events Fog    
Averages and records for this station are not official NWS values.
T = Trace of Precipitation, MM = Missing Value Source: NWS Daily Summary

Daily Weather History Graph

Daily Weather History Graph

Search for Another Location

Airport:

Trip Planner

Search our weather history database for the weather conditions in past years. The results will help you decide how hot, cold, wet, or windy it might be!

Date:

Astronomy

Mar. 20, 2012 Rise Set
Actual Time 7:07 AM EDT 7:16 PM EDT
Civil Twilight 6:40 AM EDT 7:43 PM EDT
Nautical Twilight 6:09 AM EDT 8:14 PM EDT
Astronomical Twilight 5:37 AM EDT 8:46 PM EDT
Moon 5:47 AM EDT (3/20) 5:43 PM EDT (3/20)
Length of Visible Light 13h 02m
Length of Day
12h 09m
Waning Crescent, 4% of the Moon is Illuminated
Mar 20
Waning Crescent
Mar 22
New
Mar 30
First Quarter
Apr 6
Full
Apr 13
Last Quarter

Hourly Weather History & Observations

Time (EDT) Temp. Dew Point Humidity Pressure Visibility Wind Dir Wind Speed Gust Speed Precip Events Conditions
12:03 AM 59.0 °F 59.0 °F 100% 30.24 in 10.0 mi Calm Calm - N/A   Clear
12:24 AM 59.0 °F 59.0 °F 100% 30.24 in 10.0 mi Calm Calm - N/A   Clear
12:48 AM 59.0 °F 59.0 °F 100% 30.24 in 10.0 mi Calm Calm - N/A   Clear
1:09 AM 59.0 °F 59.0 °F 100% 30.24 in 7.0 mi East 3.5 mph - N/A   Clear
1:30 AM 57.2 °F 57.2 °F 100% 30.23 in 7.0 mi ESE 4.6 mph - N/A   Clear
1:51 AM 57.2 °F 57.2 °F 100% 30.23 in 7.0 mi East 3.5 mph - N/A   Clear
2:54 AM 55.4 °F 55.4 °F 100% 30.23 in 1.2 mi NE 4.6 mph - N/A   Overcast
3:15 AM 55.4 °F 55.4 °F 100% 30.23 in 0.5 mi Calm Calm - N/A Fog Fog
3:36 AM 55.4 °F 55.4 °F 100% 30.23 in 0.2 mi NE 3.5 mph - N/A Fog Fog
4:00 AM 55.4 °F 55.4 °F 100% 30.22 in 0.5 mi East 4.6 mph - N/A Fog Fog
4:21 AM 55.4 °F 55.4 °F 100% 30.22 in 0.2 mi ENE 4.6 mph - N/A Fog Fog
4:42 AM 55.4 °F 55.4 °F 100% 30.23 in 0.5 mi Calm Calm - N/A Fog Fog
5:03 AM 55.4 °F 55.4 °F 100% 30.23 in 0.5 mi ENE 4.6 mph - N/A Fog Fog
5:24 AM 55.4 °F 55.4 °F 100% 30.23 in 0.8 mi East 3.5 mph - N/A   Overcast
5:45 AM 55.4 °F 55.4 °F 100% 30.24 in 2.5 mi Calm Calm - N/A   Overcast
5:50 AM 55.4 °F 55.4 °F 100% 30.24 in 3.0 mi Calm Calm - N/A   Overcast
6:06 AM 55.4 °F 55.4 °F 100% 30.24 in 4.0 mi Calm Calm - N/A   Overcast
6:12 AM 55.4 °F 55.4 °F 100% 30.25 in 4.0 mi Calm Calm - N/A   Overcast
6:50 AM 55.4 °F 55.4 °F 100% 30.25 in 3.0 mi Calm Calm - N/A   Overcast
7:50 AM 55.4 °F 55.4 °F 100% 30.27 in 1.0 mi Calm Calm - N/A   Overcast
8:50 AM 55.4 °F 55.4 °F 100% 30.29 in 1.0 mi Calm Calm - N/A   Overcast
10:50 AM 60.8 °F 60.8 °F 100% 30.31 in 4.0 mi Calm Calm - N/A   Overcast
11:50 AM 64.4 °F 62.6 °F 94% 30.30 in 4.0 mi NE 5.8 mph - N/A   Overcast
12:50 PM 66.2 °F 64.4 °F 94% 30.29 in 5.0 mi NE 4.6 mph - N/A   Overcast
1:10 PM 68.0 °F 64.4 °F 88% 30.29 in 7.0 mi East 3.5 mph - N/A   Overcast
1:50 PM 68.0 °F 64.4 °F 88% 30.28 in 10.0 mi NE 5.8 mph - N/A   Mostly Cloudy
2:53 PM 71.6 °F 62.6 °F 73% 30.25 in 10.0 mi ENE 4.6 mph - N/A   Overcast
3:53 PM 69.8 °F 62.6 °F 78% 30.24 in 10.0 mi East 4.6 mph - N/A   Mostly Cloudy
4:50 PM 71.6 °F 62.6 °F 73% 30.09 in 10.0 mi ENE 9.2 mph - N/A   Scattered Clouds
5:53 PM 71.6 °F 62.6 °F 73% 30.23 in 10.0 mi East 9.2 mph - N/A   Scattered Clouds
6:53 PM 66.2 °F 62.6 °F 88% 30.24 in 10.0 mi East 6.9 mph - N/A   Clear
8:53 PM 59.0 °F 59.0 °F 100% 30.28 in 10.0 mi East 4.6 mph - N/A   Mostly Cloudy
10:27 PM 59.0 °F 59.0 °F 100% 30.30 in 5.0 mi East 3.5 mph - N/A   Overcast
10:48 PM 59.0 °F 59.0 °F 100% 30.30 in 7.0 mi Calm Calm - N/A   Overcast
11:09 PM 59.0 °F 59.0 °F 100% 30.30 in 7.0 mi East 4.6 mph - N/A   Overcast
11:30 PM 59.0 °F 59.0 °F 100% 30.31 in 7.0 mi Calm Calm - N/A   Overcast
11:51 PM 59.0 °F 59.0 °F 100% 30.31 in 10.0 mi Calm Calm - N/A   Overcast